User: anonymous   Login
Location: Caltech
(34.1382°N, 118.1253°W)
Time: 22:27:07
(UTC-07:00)
Language:

Uribyol 2 - Orbit

View from above orbital plane
View from above orbital plane
View from above satellite
View from above satellite

Ground track
Ground track

The orbit data is extracted from the following two-line orbital elements,

1 22828U 93061F   16267.89298387 +.00000037 +00000-0 +31534-4 0  9997
2 22828 098.7559 223.8227 0009870 356.1100 004.0004 14.30605363167635
Epoch (UTC): 23 September 2016 21:25:53
Eccentricity: 0.0009870
inclination: 98.7559°
perigee height: 782 km
apogee height: 797 km
right ascension of ascending node: 223.8227°
argument of perigee: 356.1100°
revolutions per day: 14.30605363
mean anomaly at epoch: 4.0004°
orbit number at epoch: 16763

The dashed part of the orbit path shows where the satellite is in the earth's shadow,  

DLR